| time (UTC) | temp F | wind direction | speed knots | gust knots | rain 1hr in | rain 24hr in | rain mn in | humidity % | barometer mb |
| 20260505014520 | 51 | 105 | 0.0 | 0.9 | 0.00 | 0.00 | 0.00 | 66 | 1011.8 |
| 20260505014018 | 52 | 154 | 1.7 | 2.6 | 0.00 | 0.00 | 0.00 | 63 | 1011.6 |
| 20260505013515 | 51 | 142 | 4.3 | 7.8 | 0.00 | 0.00 | 0.00 | 64 | 1011.9 |
| 20260505013012 | 49 | 197 | 0.9 | 1.7 | 0.00 | 0.00 | 0.00 | 75 | 1011.9 |
| 20260505012510 | 49 | 174 | 3.5 | 7.8 | 0.00 | 0.00 | 0.00 | 72 | 1011.9 |
| 20260505012007 | 50 | 172 | 6.1 | 8.7 | 0.00 | 0.00 | 0.00 | 77 | 1011.7 |
| 20260505011503 | 51 | 159 | 7.0 | 9.6 | 0.00 | 0.00 | 0.00 | 69 | 1011.6 |
| 20260505011000 | 54 | 231 | 7.8 | 13.0 | 0.00 | 0.00 | 0.00 | 60 | 1011.5 |
| 20260505010455 | 55 | 238 | 1.7 | 5.2 | 0.00 | 0.00 | 0.00 | 50 | 1011.4 |
| 20260505005951 | 55 | 213 | 0.9 | 1.7 | 0.00 | 0.00 | 0.00 | 52 | 1011.2 |
| 20260505005448 | 56 | 191 | 0.0 | 0.9 | 0.00 | 0.00 | 0.00 | 53 | 1011.1 |
| 20260505004946 | 56 | 215 | 1.7 | 2.6 | 0.00 | 0.00 | 0.00 | 49 | 1011.0 |
| 20260505004443 | 56 | 203 | 2.6 | 4.3 | 0.00 | 0.00 | 0.00 | 47 | 1010.6 |
| 20260505003939 | 56 | 151 | 6.1 | 7.8 | 0.00 | 0.00 | 0.00 | 47 | 1010.5 |
| 20260505003437 | 57 | 73 | 5.2 | 13.9 | 0.00 | 0.00 | 0.00 | 45 | 1010.6 |
| 20260505002933 | 58 | 56 | 7.0 | 9.6 | 0.00 | 0.00 | 0.00 | 44 | 1010.4 |
| 20260505002429 | 58 | 81 | 6.1 | 7.8 | 0.00 | 0.00 | 0.00 | 40 | 1010.4 |
| 20260505001928 | 58 | 102 | 8.7 | 11.3 | 0.00 | 0.00 | 0.00 | 40 | 1010.4 |
| 20260505001425 | 59 | 80 | 3.5 | 8.7 | 0.00 | 0.00 | 0.00 | 40 | 1010.4 |
| 20260505000922 | 59 | 37 | 6.1 | 11.3 | 0.00 | 0.00 | 0.00 | 40 | 1010.3 |
| 20260505000420 | 59 | 51 | 0.9 | 7.8 | 0.00 | 0.00 | 0.00 | 39 | 1010.2 |
| 20260504235916 | 59 | 46 | 4.3 | 7.8 | 0.00 | 0.00 | 0.00 | 39 | 1010.1 |
| 20260504235414 | 59 | 46 | 7.0 | 7.8 | 0.00 | 0.00 | 0.00 | 39 | 1009.9 |
| 20260504234909 | 60 | 50 | 6.1 | 8.7 | 0.00 | 0.00 | 0.00 | 39 | 1010.2 |
| 20260504234408 | 60 | 47 | 4.3 | 11.3 | 0.00 | 0.00 | 0.00 | 39 | 1009.9 |
| 20260504233904 | 60 | 54 | 5.2 | 7.8 | 0.00 | 0.00 | 0.00 | 38 | 1010.1 |
| 20260504233359 | 60 | 114 | 4.3 | 6.1 | 0.00 | 0.00 | 0.00 | 37 | 1009.9 |
| 20260504232856 | 60 | 45 | 3.5 | 8.7 | 0.00 | 0.00 | 0.00 | 38 | 1010.1 |
| 20260504232353 | 61 | 63 | 4.3 | 12.2 | 0.00 | 0.00 | 0.00 | 37 | 1010.1 |
| 20260504231850 | 60 | 65 | 4.3 | 8.7 | 0.00 | 0.00 | 0.00 | 37 | 1009.9 |
| 20260504231346 | 60 | 95 | 0.0 | 2.6 | 0.00 | 0.00 | 0.00 | 38 | 1010.1 |
| 20260504230843 | 60 | 60 | 0.9 | 1.7 | 0.00 | 0.00 | 0.00 | 37 | 1009.8 |
| 20260504230341 | 61 | 66 | 3.5 | 7.0 | 0.00 | 0.00 | 0.00 | 37 | 1009.8 |
| 20260504225839 | 60 | 179 | 1.7 | 5.2 | 0.00 | 0.00 | 0.00 | 37 | 1010.1 |
| 20260504225335 | 61 | 227 | 1.7 | 2.6 | 0.00 | 0.00 | 0.00 | 37 | 1010.2 |
| 20260504224833 | 61 | 100 | 2.6 | 6.1 | 0.00 | 0.00 | 0.00 | 36 | 1009.8 |
| 20260504224330 | 61 | 110 | 7.0 | 7.8 | 0.00 | 0.00 | 0.00 | 36 | 1009.6 |
| 20260504223826 | 61 | 101 | 2.6 | 6.1 | 0.00 | 0.00 | 0.00 | 37 | 1009.8 |
| 20260504223322 | 62 | 96 | 6.1 | 7.8 | 0.00 | 0.00 | 0.00 | 36 | 1009.9 |
| 20260504222819 | 61 | 25 | 3.5 | 6.1 | 0.00 | 0.00 | 0.00 | 36 | 1009.7 |
| 20260504222316 | 61 | 56 | 5.2 | 7.0 | 0.00 | 0.00 | 0.00 | 37 | 1009.7 |
| 20260504221815 | 61 | 91 | 3.5 | 7.8 | 0.00 | 0.00 | 0.00 | 38 | 1009.8 |
| 20260504221310 | 61 | 46 | 2.6 | 7.8 | 0.00 | 0.00 | 0.00 | 37 | 1010.1 |
| 20260504220807 | 61 | 40 | 7.8 | 9.6 | 0.00 | 0.00 | 0.00 | 37 | 1010.1 |
| 20260504220304 | 61 | 32 | 9.6 | 9.6 | 0.00 | 0.00 | 0.00 | 37 | 1010.2 |
| 20260504215801 | 60 | 23 | 6.1 | 15.6 | 0.00 | 0.00 | 0.00 | 38 | 1010.2 |
| 20260504215258 | 61 | 51 | 6.1 | 7.8 | 0.00 | 0.00 | 0.00 | 37 | 1010.4 |
| 20260504214754 | 61 | 33 | 4.3 | 7.8 | 0.00 | 0.00 | 0.00 | 37 | 1009.9 |
| 20260504214251 | 60 | 66 | 4.3 | 7.8 | 0.00 | 0.00 | 0.00 | 38 | 1010.3 |
| 20260504213747 | 61 | 36 | 7.8 | 12.2 | 0.00 | 0.00 | 0.00 | 37 | 1010.4 |
| 20260504213243 | 60 | 30 | 7.0 | 9.6 | 0.00 | 0.00 | 0.00 | 37 | 1010.3 |
| 20260504212740 | 61 | 37 | 7.8 | 11.3 | 0.00 | 0.00 | 0.00 | 37 | 1010.5 |
| 20260504212237 | 61 | 24 | 13.0 | 20.9 | 0.00 | 0.00 | 0.00 | 37 | 1010.1 |
| 20260504211735 | 61 | 56 | 6.1 | 11.3 | 0.00 | 0.00 | 0.00 | 36 | 1010.4 |
| 20260504211231 | 61 | 9 | 11.3 | 13.9 | 0.00 | 0.00 | 0.00 | 37 | 1010.4 |
| 20260504210728 | 62 | 26 | 9.6 | 17.4 | 0.00 | 0.00 | 0.00 | 36 | 1010.5 |
| 20260504210225 | 61 | 73 | 1.7 | 8.7 | 0.00 | 0.00 | 0.00 | 37 | 1010.5 |
| 20260504205722 | 61 | 43 | 6.1 | 11.3 | 0.00 | 0.00 | 0.00 | 37 | 1010.5 |
| 20260504205220 | 62 | 33 | 13.0 | 18.2 | 0.00 | 0.00 | 0.00 | 37 | 1010.6 |
| 20260504204718 | 62 | 351 | 7.8 | 15.6 | 0.00 | 0.00 | 0.00 | 37 | 1010.4 |
| 20260504204216 | 62 | 34 | 10.4 | 14.8 | 0.00 | 0.00 | 0.00 | 37 | 1010.5 |
| 20260504203715 | 62 | 26 | 10.4 | 14.8 | 0.00 | 0.00 | 0.00 | 37 | 1010.4 |
| 20260504203212 | 62 | 16 | 17.4 | 19.1 | 0.00 | 0.00 | 0.00 | 37 | 1010.3 |
| 20260504202711 | 62 | 18 | 9.6 | 12.2 | 0.00 | 0.00 | 0.00 | 36 | 1010.5 |
| 20260504202204 | 62 | 94 | 4.3 | 8.7 | 0.00 | 0.00 | 0.00 | 37 | 1010.4 |
| 20260504201700 | 63 | 36 | 11.3 | 17.4 | 0.00 | 0.00 | 0.00 | 37 | 1010.3 |
| 20260504201158 | 62 | 341 | 12.2 | 17.4 | 0.00 | 0.00 | 0.00 | 36 | 1010.3 |
| 20260504200655 | 63 | 6 | 16.5 | 20.0 | 0.00 | 0.00 | 0.00 | 36 | 1010.6 |
| 20260504200152 | 63 | 19 | 11.3 | 17.4 | 0.00 | 0.00 | 0.00 | 36 | 1010.4 |
| 20260504195647 | 63 | 26 | 11.3 | 14.8 | 0.00 | 0.00 | 0.00 | 36 | 1010.1 |
| 20260504195144 | 64 | 12 | 16.5 | 20.0 | 0.00 | 0.00 | 0.00 | 34 | 1010.3 |
| 20260504194641 | 62 | 358 | 15.6 | 23.5 | 0.00 | 0.00 | 0.00 | 38 | 1010.2 |
| 20260504194137 | 65 | 58 | 13.0 | 15.6 | 0.00 | 0.00 | 0.00 | 36 | 1010.3 |
| 20260504193633 | 64 | 16 | 13.0 | 19.1 | 0.00 | 0.00 | 0.00 | 34 | 1010.2 |
| 20260504193132 | 64 | 68 | 6.1 | 13.9 | 0.00 | 0.00 | 0.00 | 35 | 1010.1 |
| 20260504192629 | 63 | 35 | 8.7 | 19.1 | 0.00 | 0.00 | 0.00 | 35 | 1010.2 |
| 20260504192127 | 64 | 59 | 14.8 | 21.7 | 0.00 | 0.00 | 0.00 | 36 | 1010.3 |
| 20260504191625 | 64 | 32 | 11.3 | 19.1 | 0.00 | 0.00 | 0.00 | 34 | 1010.3 |
| 20260504191121 | 64 | 355 | 13.0 | 22.6 | 0.00 | 0.00 | 0.00 | 36 | 1010.1 |
| 20260504190617 | 64 | 22 | 9.6 | 18.2 | 0.00 | 0.00 | 0.00 | 35 | 1009.8 |
| 20260504190114 | 64 | 26 | 14.8 | 21.7 | 0.00 | 0.00 | 0.00 | 34 | 1010.1 |
| 20260504185610 | 64 | 41 | 8.7 | 26.1 | 0.00 | 0.00 | 0.00 | 35 | 1010.2 |
| 20260504185107 | 64 | 11 | 11.3 | 21.7 | 0.00 | 0.00 | 0.00 | 35 | 1010.3 |
| 20260504184603 | 64 | 10 | 18.2 | 26.9 | 0.00 | 0.00 | 0.00 | 35 | 1010.2 |
| 20260504184058 | 64 | 35 | 9.6 | 20.9 | 0.00 | 0.00 | 0.00 | 35 | 1010.3 |
| 20260504183555 | 64 | 25 | 20.9 | 28.7 | 0.00 | 0.00 | 0.00 | 34 | 1010.4 |
| 20260504183054 | 65 | 40 | 16.5 | 22.6 | 0.00 | 0.00 | 0.00 | 33 | 1010.3 |
| 20260504182550 | 65 | 352 | 14.8 | 18.2 | 0.00 | 0.00 | 0.00 | 32 | 1010.3 |
| 20260504182048 | 64 | 27 | 15.6 | 23.5 | 0.00 | 0.00 | 0.00 | 34 | 1010.4 |
| 20260504181544 | 65 | 30 | 16.5 | 22.6 | 0.00 | 0.00 | 0.00 | 33 | 1010.2 |
| 20260504181043 | 66 | 359 | 20.9 | 22.6 | 0.00 | 0.00 | 0.00 | 32 | 1010.4 |
| 20260504180541 | 64 | 9 | 19.1 | 23.5 | 0.00 | 0.00 | 0.00 | 32 | 1010.4 |
| 20260504180040 | 65 | 26 | 17.4 | 20.9 | 0.00 | 0.00 | 0.00 | 31 | 1010.5 |
| 20260504175537 | 64 | 43 | 15.6 | 22.6 | 0.00 | 0.00 | 0.00 | 31 | 1010.4 |
| 20260504175034 | 63 | 9 | 15.6 | 20.0 | 0.00 | 0.00 | 0.00 | 31 | 1010.3 |
| 20260504174532 | 64 | 20 | 13.0 | 20.0 | 0.00 | 0.00 | 0.00 | 31 | 1010.3 |
| 20260504174028 | 64 | 28 | 26.9 | 30.4 | 0.00 | 0.00 | 0.00 | 30 | 1010.2 |
| 20260504173525 | 63 | 28 | 21.7 | 27.8 | 0.00 | 0.00 | 0.00 | 31 | 1010.1 |
| 20260504173022 | 62 | 72 | 13.9 | 23.5 | 0.00 | 0.00 | 0.00 | 31 | 1009.9 |
| 20260504172518 | 62 | 26 | 24.3 | 28.7 | 0.00 | 0.00 | 0.00 | 31 | 1010.2 |
| 20260504172015 | 64 | 7 | 20.0 | 33.9 | 0.00 | 0.00 | 0.00 | 31 | 1009.6 |
| 20260504171512 | 66 | 6 | 8.7 | 9.6 | 0.00 | 0.00 | 0.00 | 24 | 1009.6 |
| 20260504171009 | 66 | 38 | 5.2 | 6.1 | 0.00 | 0.00 | 0.00 | 24 | 1009.5 |
| 20260504170504 | 67 | 19 | 8.7 | 13.0 | 0.00 | 0.00 | 0.00 | 24 | 1009.5 |
| 20260504160425 | 66 | 40 | 2.6 | 7.8 | 0.00 | 0.00 | 0.00 | 24 | 1009.5 |
| 20260504150849 | 64 | 318 | 6.1 | 12.2 | 0.00 | 0.00 | 0.00 | 24 | 1009.5 |
| 20260504150345 | 63 | 359 | 6.1 | 9.6 | 0.00 | 0.00 | 0.00 | 26 | 1009.7 |
| 20260504141315 | 57 | 275 | 9.6 | 11.3 | 0.00 | 0.00 | 0.00 | 31 | 1010.2 |
| 20260504140812 | 57 | 255 | 8.7 | 11.3 | 0.00 | 0.00 | 0.00 | 32 | 1010.2 |
| 20260504140308 | 56 | 290 | 5.2 | 11.3 | 0.00 | 0.00 | 0.00 | 34 | 1009.9 |
| 20260504130737 | 48 | 212 | 2.6 | 4.3 | 0.00 | 0.00 | 0.00 | 50 | 1009.7 |
| 20260504130232 | 47 | 219 | 1.7 | 2.6 | 0.00 | 0.00 | 0.00 | 54 | 1009.7 |
| 20260504120156 | 37 | 270 | 5.2 | 7.8 | 0.00 | 0.00 | 0.00 | 65 | 1009.8 |
| 20260504110624 | 37 | 282 | 1.7 | 4.3 | 0.00 | 0.00 | 0.00 | 68 | 1009.8 |
| 20260504110120 | 37 | 201 | 0.0 | 0.9 | 0.00 | 0.00 | 0.00 | 68 | 1010.1 |
| 20260504100545 | 36 | 268 | 0.0 | 0.0 | 0.00 | 0.00 | 0.00 | 68 | 1010.2 |
| 20260504081939 | 35 | 181 | 0.9 | 0.9 | 0.00 | 0.00 | 0.00 | 67 | 1010.9 |
| 20260504081436 | 35 | 225 | 2.6 | 6.1 | 0.00 | 0.00 | 0.00 | 67 | 1011.1 |
| 20260504080932 | 36 | 280 | 2.6 | 5.2 | 0.00 | 0.00 | 0.00 | 66 | 1011.1 |
| 20260504080428 | 37 | 223 | 0.0 | 0.0 | 0.00 | 0.00 | 0.00 | 68 | 1011.2 |
| 20260504070356 | 37 | 207 | 0.0 | 0.9 | 0.00 | 0.00 | 0.00 | 62 | 1012.3 |
| 20260504050744 | 42 | 197 | 0.0 | 0.0 | 0.00 | 0.00 | 0.00 | 64 | 1012.3 |
| 20260504050241 | 42 | 197 | 0.0 | 0.0 | 0.00 | 0.00 | 0.00 | 64 | 1012.8 |
| 20260504045738 | 42 | 207 | 0.0 | 0.0 | 0.00 | 0.00 | 0.00 | 65 | 1012.5 |
| 20260504045233 | 42 | 206 | 0.0 | 0.0 | 0.00 | 0.00 | 0.00 | 62 | 1012.4 |
| 20260504044731 | 43 | 198 | 0.0 | 0.0 | 0.00 | 0.00 | 0.00 | 68 | 1012.9 |
| 20260504044228 | 44 | 201 | 0.0 | 0.0 | 0.00 | 0.00 | 0.00 | 55 | 1012.7 |
| 20260504043725 | 44 | 229 | 0.9 | 2.6 | 0.00 | 0.00 | 0.00 | 54 | 1012.7 |
| 20260504043222 | 44 | 239 | 0.0 | 1.7 | 0.00 | 0.00 | 0.00 | 55 | 1012.9 |
| 20260504042720 | 45 | 250 | 2.6 | 2.6 | 0.00 | 0.00 | 0.00 | 54 | 1013.0 |
| 20260504042216 | 46 | 204 | 0.0 | 0.0 | 0.00 | 0.00 | 0.00 | 53 | 1013.0 |
| 20260504041712 | 46 | 224 | 0.0 | 0.0 | 0.00 | 0.00 | 0.00 | 52 | 1013.1 |
| 20260504041208 | 45 | 217 | 0.0 | 0.0 | 0.00 | 0.00 | 0.00 | 52 | 1013.1 |
| 20260504040705 | 46 | 233 | 0.0 | 2.6 | 0.00 | 0.00 | 0.00 | 51 | 1013.1 |
| 20260504040202 | 48 | 282 | 0.0 | 2.6 | 0.00 | 0.00 | 0.00 | 48 | 1013.1 |
| 20260504035658 | 49 | 194 | 1.7 | 1.7 | 0.00 | 0.00 | 0.00 | 50 | 1013.4 |
| 20260504035155 | 51 | 180 | 0.0 | 1.7 | 0.00 | 0.00 | 0.00 | 47 | 1013.2 |
| 20260504034653 | 51 | 129 | 2.6 | 2.6 | 0.00 | 0.00 | 0.00 | 47 | 1013.1 |
| 20260504034150 | 52 | 157 | 2.6 | 2.6 | 0.00 | 0.00 | 0.00 | 46 | 1012.8 |
| 20260504033648 | 52 | 115 | 2.6 | 4.3 | 0.00 | 0.00 | 0.00 | 46 | 1012.5 |
| 20260504033145 | 51 | 102 | 2.6 | 4.3 | 0.00 | 0.00 | 0.00 | 46 | 1012.8 |
| 20260504032641 | 52 | 132 | 3.5 | 5.2 | 0.00 | 0.00 | 0.00 | 45 | 1012.8 |
| 20260504032139 | 52 | 97 | 1.7 | 1.7 | 0.00 | 0.00 | 0.00 | 45 | 1013.0 |
| 20260504031636 | 53 | 106 | 0.0 | 1.7 | 0.00 | 0.00 | 0.00 | 45 | 1012.9 |
| 20260504031132 | 53 | 124 | 2.6 | 5.2 | 0.00 | 0.00 | 0.00 | 44 | 1012.9 |
| 20260504030629 | 52 | 125 | 2.6 | 2.6 | 0.00 | 0.00 | 0.00 | 44 | 1012.7 |
| 20260504030125 | 51 | 111 | 2.6 | 2.6 | 0.00 | 0.00 | 0.00 | 45 | 1012.7 |
| 20260504025622 | 51 | 78 | 1.7 | 4.3 | 0.00 | 0.00 | 0.00 | 45 | 1012.9 |
| 20260504025119 | 52 | 75 | 0.9 | 4.3 | 0.00 | 0.00 | 0.00 | 44 | 1012.7 |
| 20260504024616 | 52 | 87 | 2.6 | 2.6 | 0.00 | 0.00 | 0.00 | 44 | 1012.7 |
| 20260504024113 | 53 | 52 | 1.7 | 4.3 | 0.00 | 0.00 | 0.00 | 44 | 1012.7 |
| 20260504023609 | 54 | 33 | 4.3 | 6.1 | 0.00 | 0.00 | 0.00 | 43 | 1012.8 |
| 20260504023105 | 55 | 50 | 3.5 | 9.6 | 0.00 | 0.00 | 0.00 | 41 | 1012.4 |
| 20260504022601 | 56 | 55 | 3.5 | 7.8 | 0.00 | 0.00 | 0.00 | 40 | 1012.2 |
| 20260504022058 | 56 | 77 | 5.2 | 11.3 | 0.00 | 0.00 | 0.00 | 40 | 1012.5 |
| 20260504021555 | 56 | 56 | 2.6 | 6.1 | 0.00 | 0.00 | 0.00 | 40 | 1012.8 |
| 20260504021052 | 57 | 49 | 4.3 | 7.8 | 0.00 | 0.00 | 0.00 | 39 | 1012.3 |
| 20260504020549 | 58 | 48 | 5.2 | 7.0 | 0.00 | 0.00 | 0.00 | 38 | 1012.7 |
| 20260504020045 | 59 | 42 | 6.1 | 8.7 | 0.00 | 0.00 | 0.00 | 38 | 1012.7 |
| 20260504015542 | 59 | 41 | 8.7 | 13.9 | 0.00 | 0.00 | 0.00 | 36 | 1012.5 |
| 20260504015038 | 61 | 43 | 7.8 | 17.4 | 0.00 | 0.00 | 0.00 | 35 | 1012.4 |